Location: Kra?nica
(53.4833°N, 14.6167°E)
Time: 10:55:58
(UTC+00:00)

POLYITAN 1 - Visible Passes

Search period start: 06 October 2024 00:00
Search period end: 16 October 2024 00:00
Orbit: 535 x 556 km, 98.1° (Epoch: 05 October)

Date Brightness Start Highest point End Pass type
(mag) Time Alt. Az. Time Alt. Az. Time Alt. Az.
06 Oct ? 02:57:59 10° NNE 03:01:50 57° ESE 03:04:51 16° S visible
06 Oct ? 04:33:18 10° NNW 04:36:06 19° WNW 04:38:54 10° WSW visible
07 Oct ? 02:52:24 10° NNE 02:56:12 49° E 02:59:05 16° S visible
07 Oct ? 04:27:34 10° N 04:30:32 21° WNW 04:33:31 10° WSW visible
08 Oct ? 02:46:47 10° NNE 02:50:31 43° E 02:53:14 17° SSE visible
08 Oct ? 04:21:46 10° N 04:24:55 24° WNW 04:28:03 10° WSW visible
09 Oct ? 02:41:05 10° NNE 02:44:45 37° E 02:47:20 17° SSE visible
09 Oct ? 04:15:56 10° N 04:19:13 27° WNW 04:22:30 10° WSW visible
10 Oct ? 02:35:21 10° NNE 02:38:54 33° E 02:41:21 17° SSE visible
10 Oct ? 04:10:02 10° N 04:13:27 30° WNW 04:16:51 10° SW visible
11 Oct ? 02:29:33 10° NE 02:32:59 29° E 02:35:18 17° SSE visible
11 Oct ? 04:04:05 10° N 04:07:37 34° WNW 04:10:53 11° SW visible
12 Oct ? 02:23:43 10° NE 02:27:00 25° E 02:29:10 16° SE visible
12 Oct ? 03:58:04 10° N 04:01:42 38° WNW 04:04:45 13° SW visible
13 Oct ? 02:17:50 10° NE 02:20:57 22° E 02:22:59 15° SE visible
13 Oct ? 03:52:00 10° N 03:55:42 43° WNW 03:58:34 16° SW visible
14 Oct ? 02:11:55 10° NE 02:14:48 20° E 02:16:43 14° SE visible
14 Oct ? 03:45:52 10° N 03:49:39 50° WNW 03:52:17 18° SW visible
15 Oct ? 02:05:58 10° NE 02:08:36 17° E 02:10:23 13° ESE visible
15 Oct ? 03:39:40 10° N 03:43:31 58° WNW 03:45:57 21° SW visible
